GW6707 Weather Reports


time (UTC)temp
C
wind
direction
speed
KPH
gust
KPH
rain 1hr
cm
rain 24hr
cm
rain mn
cm
humidity
%
barometer
mb
20260503053024 14 317 0.0 0.0 0.00 0.00 0.00 60 1021.3
20260503051508 13 317 0.0 0.0 0.00 0.00 0.00 59 1021.2
20260503050014 13 317 0.0 0.0 0.00 0.00 0.00 58 1021.2
20260503044526 13 317 0.0 0.0 0.00 0.00 0.00 56 1021.4
20260503043024 13 317 0.0 1.6 0.00 0.00 0.00 56 1021.4
20260503041528 13 317 0.0 3.2 0.00 0.00 0.00 57 1021.3
20260503040012 13 313 0.0 3.2 0.00 0.00 0.00 57 1021.3
20260503034517 13 308 0.0 3.2 0.00 0.00 0.00 56 1021.3
20260503033027 13 325 0.0 3.2 0.00 0.00 0.00 56 1021.4
20260503031534 14 316 0.0 1.6 0.00 0.00 0.00 57 1021.3
20260503030030 14 316 0.0 1.6 0.00 0.00 0.00 56 1021.4
20260503024515 14 316 0.0 3.2 0.00 0.00 0.00 55 1021.5
20260503023038 14 316 0.0 3.2 0.00 0.00 0.00 55 1021.6
20260503021524 14 301 0.0 3.2 0.00 0.00 0.00 56 1021.7
20260503020028 14 273 0.0 3.2 0.00 0.00 0.00 55 1021.7
20260503014530 14 273 0.0 1.6 0.00 0.00 0.00 55 1021.8
20260503013016 14 271 0.0 3.2 0.00 0.00 0.00 54 1021.8
20260503011522 14 309 0.0 0.0 0.00 0.00 0.00 53 1021.9
20260503010031 14 309 0.0 0.0 0.00 0.00 0.00 50 1022.0
20260503004528 15 309 0.0 0.0 0.00 0.00 0.00 49 1022.2
20260503003030 15 309 0.0 3.2 0.00 0.00 0.00 48 1022.3
20260503001520 15 309 0.0 0.0 0.00 0.00 0.00 48 1022.5
20260503000026 15 309 0.0 3.2 0.00 0.00 0.00 49 1022.6
20260502234525 15 312 0.0 3.2 0.00 0.00 0.00 48 1022.8
20260502233028 15 312 0.0 3.2 0.00 0.00 0.00 48 1022.9
20260502231531 15 312 0.0 0.0 0.00 0.00 0.00 47 1023.0
20260502230023 15 312 0.0 0.0 0.00 0.00 0.00 46 1023.0
20260502224527 15 312 0.0 3.2 0.00 0.00 0.00 46 1023.1
20260502223028 15 312 0.0 0.0 0.00 0.00 0.00 46 1023.2
20260502221527 15 312 0.0 3.2 0.00 0.00 0.00 46 1023.2
20260502220032 15 319 0.0 3.2 0.00 0.00 0.00 47 1023.3
20260502214524 15 319 0.0 3.2 0.00 0.00 0.00 47 1023.2
20260502213031 16 321 0.0 1.6 0.00 0.00 0.00 47 1023.3
20260502211530 16 321 0.0 1.6 0.00 0.00 0.00 47 1023.4
20260502210030 16 321 0.0 3.2 0.00 0.00 0.00 47 1023.4
20260502204527 16 351 0.0 4.8 0.00 0.00 0.00 46 1023.5
20260502203024 16 326 3.2 4.8 0.00 0.00 0.00 46 1023.5
20260502201511 16 321 0.0 3.2 0.00 0.00 0.00 46 1023.4
20260502200014 16 360 0.0 4.8 0.00 0.00 0.00 47 1023.4
20260502194520 16 331 0.0 4.8 0.00 0.00 0.00 47 1023.3
20260502193025 16 309 0.0 3.2 0.00 0.00 0.00 46 1023.2
20260502191515 16 315 1.6 3.2 0.00 0.00 0.00 46 1023.2
20260502190012 16 315 0.0 3.2 0.00 0.00 0.00 47 1023.1
20260502184527 16 319 1.6 4.8 0.00 0.00 0.00 47 1023.2
20260502183024 16 321 1.6 6.4 0.00 0.00 0.00 48 1023.1
20260502181525 17 304 4.8 6.4 0.00 0.00 0.00 48 1023.0
20260502163024 20 172 3.2 4.8 0.00 0.00 0.00 41 1023.0
20260502161525 19 133 0.0 6.4 0.00 0.00 0.00 42 1023.2
20260502151535 20 171 1.6 6.4 0.00 0.00 0.00 41 1023.6
20260502123038 18 154 1.6 9.7 0.00 0.00 0.00 45 1025.6
20260502121530 18 130 4.8 11.3 0.00 0.00 0.00 44 1025.8
20260502114506 18 163 3.2 8.0 0.00 0.00 0.00 43 1026.2
20260502113010 18 199 0.0 6.4 0.00 0.00 0.00 45 1026.3
20260502111514 17 151 4.8 9.7 0.00 0.00 0.00 43 1026.5
20260502110026 17 118 4.8 9.7 0.00 0.00 0.00 43 1026.7
20260502104525 17 160 4.8 12.9 0.00 0.00 0.00 42 1027.1
20260502103007 16 304 4.8 9.7 0.00 0.00 0.00 43 1027.2
20260502101512 16 329 3.2 12.9 0.00 0.00 0.00 43 1027.5
20260502091509 16 11 1.6 8.0 0.00 0.00 0.00 49 1027.9
20260502071526 15 129 3.2 6.4 0.00 0.00 0.00 53 1028.1
20260502070013 14 139 1.6 3.2 0.00 0.00 0.00 54 1028.2
20260502064520 13 160 1.6 4.8 0.00 0.00 0.00 58 1028.2
20260502063024 14 144 1.6 4.8 0.00 0.00 0.00 54 1028.2
20260502061527 13 140 1.6 6.4 0.00 0.00 0.00 56 1028.1
20260502060026 13 143 1.6 3.2 0.00 0.00 0.00 56 1028.1
20260502054516 13 144 1.6 3.2 0.00 0.00 0.00 54 1028.1